This demonstration page uses our WeatherBlox Daily Observations layout. Learn more.

Left ArrowRight Arrow

39.51506, -84.39828

Hourly Observations for February 23, 2017

Temp ( °F °C ) Dew Point ( °F °C ) Humidity (%) Winds ( mph kmh ) Pressure ( in mb ) Visibility ( mi km ) Precip ( " mm )
12:35 am 00:35 Clear with Mist and Fog 54 12.3 50 9.8 85 85 undefined N/A 29.80 1009 3 4 0.00 0.00
12:55 am 00:55 Clear with Mist and Fog 55 12.5 50 10 85 85 undefined N/A 29.80 1009 3 5 0.00 0.00
1:15 am 01:15 Mostly Cloudy with Haze 54 12.2 49 9.7 85 85 undefined N/A 29.83 1010 1 1 0.00 0.00
1:35 am 01:35 Mostly Cloudy with Haze 51 10.8 47 8.3 85 85 undefined N/A 29.83 1010 1 1 0.00 0.00
1:55 am 01:55 Mostly Cloudy with Haze 51 10.4 46 7.9 85 85 undefined N/A 29.83 1010 1 2 0.00 0.00
2:15 am 02:15 Clear with Mist and Fog 53 11.8 49 9.3 85 85 undefined N/A 29.83 1010 3 5 0.00 0.00
2:35 am 02:35 Mostly Cloudy with Fog 51 10.6 47 8.2 85 85 undefined N/A 29.83 1010 0 0 0.00 0.00
2:55 am 02:55 Mostly Cloudy with Haze 52 10.9 47 8.4 85 85 undefined N/A 29.83 1010 0 0 0.00 0.00
3:15 am 03:15 Mostly Cloudy with Haze 49 9.7 45 7.3 85 85 undefined N/A 29.83 1010 1 1 0.00 0.00
3:35 am 03:35 Cloudy with Fog 49 9.6 45 7.2 85 85 undefined N/A 29.83 1010 0 0 0.00 0.00
3:55 am 03:55 Cloudy with Fog 49 9.6 45 7.2 85 85 undefined N/A 29.83 1010 1 1 0.00 0.00
4:15 am 04:15 Cloudy with Mist and Fog 51 10.5 47 8.2 86 86 undefined N/A 29.83 1010 4 6 0.00 0.00
4:35 am 04:35 Cloudy with Mist and Fog 55 12.5 50 10 85 85 undefined N/A 29.83 1010 3 5 0.00 0.00
4:55 am 04:55 Cloudy with Mist and Fog 55 12.5 50 10 85 85 undefined N/A 29.83 1010 4 6 0.00 0.00
5:15 am 05:15 Cloudy with Mist and Fog 55 12.5 50 10 85 85 undefined N/A 29.83 1010 5 8 0.00 0.00
5:35 am 05:35 Cloudy with Mist and Fog 55 12.5 50 10 85 85 undefined N/A 29.83 1010 5 8 0.00 0.00
5:55 am 05:55 Cloudy 56 13.4 52 10.9 85 85 undefined N/A 29.83 1010 7 11 0.00 0.00
6:15 am 06:15 Cloudy 55 12.6 50 10.1 85 85 undefined N/A 29.83 1010 7 11 0.00 0.00
6:35 am 06:35 Partly Cloudy 55 13 51 10.6 85 85 undefined N/A 29.83 1010 7 11 0.00 0.00
6:55 am 06:55 Partly Cloudy 55 12.5 50 10 85 85 undefined N/A 29.83 1010 7 11 0.00 0.00
7:15 am 07:15 Clear 55 12.5 50 10 85 85 undefined N/A 29.83 1010 7 11 0.00 0.00
7:35 am 07:35 Sunny with Mist and Fog 55 12.5 50 10 85 85 undefined N/A 29.83 1010 5 8 0.00 0.00
7:55 am 07:55 Hazy 57 13.7 52 11.2 85 85 undefined N/A 29.85 1011 5 8 0.00 0.00
8:15 am 08:15 Mostly Cloudy 57 13.8 52 11.3 85 85 undefined N/A 29.83 1010 7 11 0.00 0.00
8:35 am 08:35 Cloudy 57 13.8 52 11.3 85 85 undefined N/A 29.80 1009 7 11 0.00 0.00
8:55 am 08:55 Mostly Cloudy 60 15.3 55 12.5 84 84 N 6 9 29.80 1009 10 16 0.00 0.00
9:15 am 09:15 Partly Cloudy 61 16.3 55 12.7 79 79 undefined N/A 29.83 1010 10 16 0.00 0.00
9:35 am 09:35 Partly Cloudy 63 17 54 12.2 74 74 undefined N/A 29.83 1010 10 16 0.00 0.00
9:55 am 09:55 Partly Cloudy 64 18 55 12.6 71 71 N 9 15 29.83 1010 10 16 0.00 0.00
10:15 am 10:15 Mostly Cloudy 64 18 54 12.1 69 69 undefined N/A 29.83 1010 10 16 0.00 0.00
10:35 am 10:35 Cloudy 67 19.3 55 13 67 67 undefined N/A 29.83 1010 10 16 0.00 0.00
10:55 am 10:55 Mostly Cloudy 67 19.5 55 12.9 66 66 undefined N/A 29.83 1010 10 16 0.00 0.00
11:15 am 11:15 Mostly Cloudy 69 20.8 56 13.6 64 64 N 10 17 29.80 1009 10 16 0.00 0.00
11:35 am 11:35 Cloudy 70 20.9 55 12.5 59 59 N 10 17 29.80 1009 10 16 0.00 0.00
11:55 am 11:55 Cloudy 69 20.8 55 12.9 61 61 undefined N/A 29.80 1009 10 16 0.00 0.00
12:15 pm 12:15 Cloudy 69 20.8 55 12.5 59 59 N 9 15 29.80 1009 10 16 0.00 0.00
12:35 pm 12:35 Cloudy 71 21.6 54 12.3 56 56 N 15 24 29.80 1009 10 16 0.00 0.00
12:55 pm 12:55 Partly Cloudy 74 23.4 56 13.1 52 52 N 14 22 29.80 1009 10 16 0.00 0.00
1:15 pm 13:15 Partly Cloudy 72 22 53 11.9 53 53 N 13 20 29.77 1008 10 16 0.00 0.00
1:35 pm 13:35 Partly Cloudy 70 20.9 52 11.3 54 54 N 12 19 29.77 1008 10 16 0.00 0.00
1:55 pm 13:55 Partly Cloudy 69 20.8 51 10.8 53 53 N 9 15 29.77 1008 10 16 0.00 0.00
2:15 pm 14:15 Mostly Cloudy 70 20.9 51 10.7 52 52 N 17 28 29.77 1008 10 16 0.00 0.00
2:35 pm 14:35 Cloudy 69 20.8 52 11.1 54 54 undefined N/A 29.77 1008 10 16 0.00 0.00
2:55 pm 14:55 Cloudy 69 20.8 52 11 54 54 undefined N/A 29.77 1008 10 16 0.00 0.00
3:15 pm 15:15 Cloudy 69 20.8 52 11.1 54 54 undefined N/A 29.77 1008 10 16 0.00 0.00
3:35 pm 15:35 Cloudy 69 20.8 52 11.2 54 54 undefined N/A 29.74 1007 10 16 0.00 0.00
3:55 pm 15:55 Cloudy 69 20.8 52 11.3 55 55 undefined N/A 29.77 1008 10 16 0.00 0.00
4:15 pm 16:15 Cloudy 69 20.8 52 11.3 55 55 undefined N/A 29.77 1008 10 16 0.00 0.00
4:35 pm 16:35 Cloudy 69 20.8 52 10.9 53 53 N 10 17 29.77 1008 10 16 0.00 0.00
4:55 pm 16:55 Cloudy 69 20.8 52 11.3 55 55 N 6 9 29.77 1008 10 16 0.00 0.00
5:15 pm 17:15 Cloudy 69 20.8 54 12 57 57 undefined N/A 29.77 1008 10 16 0.00 0.00
5:35 pm 17:35 Cloudy 69 20.8 54 12 57 57 undefined N/A 29.77 1008 10 16 0.00 0.00
5:55 pm 17:55 Cloudy 69 20.8 54 12.1 58 58 N 5 7 29.77 1008 10 16 0.00 0.00
6:15 pm 18:15 Cloudy 69 20.8 55 12.5 59 59 undefined N/A 29.77 1008 10 16 0.00 0.00
6:35 pm 18:35 Cloudy 69 20.8 54 12.1 58 58 N 5 7 29.77 1008 10 16 0.00 0.00
6:55 pm 18:55 Cloudy 68 19.9 53 11.8 60 60 undefined N/A 29.77 1008 10 16 0.00 0.00
7:15 pm 19:15 Cloudy 66 18.9 53 11.5 62 62 undefined N/A 29.77 1008 10 16 0.00 0.00
7:35 pm 19:35 Cloudy 64 17.5 52 11.3 67 67 undefined N/A 29.77 1008 10 16 0.00 0.00
7:55 pm 19:55 Mostly Cloudy 64 18 52 11.1 64 64 undefined N/A 29.77 1008 10 16 0.00 0.00
8:15 pm 20:15 Partly Cloudy 62 16.7 52 11.1 70 70 undefined N/A 29.77 1008 10 16 0.00 0.00
8:35 pm 20:35 Partly Cloudy 62 16.5 52 11.2 71 71 undefined N/A 29.77 1008 10 16 0.00 0.00
8:55 pm 20:55 Partly Cloudy 60 15.3 52 10.9 75 75 undefined N/A 29.77 1008 10 16 0.00 0.00
9:15 pm 21:15 Partly Cloudy 58 14.7 50 10.2 75 75 undefined N/A 29.77 1008 10 16 0.00 0.00
9:35 pm 21:35 Cloudy 60 15.3 53 11.4 78 78 undefined N/A 29.77 1008 10 16 0.00 0.00
9:55 pm 21:55 Mostly Cloudy 61 16.1 52 11.2 73 73 undefined N/A 29.77 1008 10 16 0.00 0.00
10:15 pm 22:15 Mostly Cloudy 61 16 52 11.1 73 73 undefined N/A 29.77 1008 10 16 0.00 0.00
10:35 pm 22:35 Partly Cloudy 60 15.3 52 11 76 76 undefined N/A 29.77 1008 10 16 0.00 0.00
10:55 pm 22:55 Mostly Cloudy 60 15.3 52 11.2 77 77 undefined N/A 29.77 1008 10 16 0.00 0.00
11:15 pm 23:15 Cloudy 60 15.6 53 11.5 77 77 undefined N/A 29.77 1008 10 16 0.00 0.00
11:35 pm 23:35 Partly Cloudy 60 15.3 53 11.6 79 79 undefined N/A 29.74 1007 10 16 0.00 0.00
11:55 pm 23:55 Partly Cloudy 57 13.8 51 10.5 81 81 undefined N/A 29.74 1007 10 16 0.00 0.00

Powered by AerisWeather